STARLINK-4539 (53423 NORAD) Tracking and Keplerian Element Data

This shows tracking and keplerian element data for the satellite.

Feedback or suggestion? Click here.




ElementValue
Catalog53423
NameSTARLINK-4539
Epoch Orbit1632
Epoch Day325.16703022
Epoch Year2022
RAAN121.4216
Inclination53.2189
Eccentricity0.0001819
Argument of Perigee48.0088
Mean Anonmoly312.1059
Mean Motion15.08840908
Decay Rate1.72E-06
L11 53423U 22097AM 22325.16703022 .00000172 00000+0 28899-4 0 9991
L22 53423 53.2189 121.4216 0001819 48.0088 312.1059 15.08840908 16327



Live tracking and technical data element details for STARLINK-4539 (NORAD 53423). STARLINK-4539 can be tracked NOW for your location showing map with azimuth and elevation plus other details from your city location.







IsCatalogInMostPopularTable: catalog: 53423, numindb: 8
Update: records affected: 1



GetName: 53423 STARLINK-4539

Hit Count: updated at: Tue, 29 Nov 2022 01:57:12 GMT